Hourly Data Report for October 01, 2014

All times are specified in Local Standard Time (LST). Add 1 hour to adjust for Daylight Saving Time where and when it is observed.

KAMLOOPS A
BRITISH COLUMBIA

50°42'09.000" N
120°26'55.000" W
345.30 m
1163781
71887
YKA

Download Data

Hourly Data (October 2014)
Hourly Data Report for October 1, 2014
Temp Definition
°C
Dew Point Temp Definition
°C
Rel Hum Definition
%
Wind Dir Definition
10's deg

Wind Spd Definition
km/h
Visibility Definition
km
Stn Press Definition
kPa
Hmdx Definition


Wind Chill Definition


Weather Definition


TIME
00:00 Legend Double Dagger 8.9 4.4 73 22 4 64.4 97.68     LegendNANA
01:00 Legend Double Dagger 8.5 4.7 77 26 5 64.4 97.70     Mostly Cloudy
02:00 Legend Double Dagger 8.7 4.9 77 31 6 64.4 97.71     LegendNANA
03:00 Legend Double Dagger 8.0 4.6 79 36 2 64.4 97.71     LegendNANA
04:00 Legend Double Dagger 7.3 4.5 82 28 5 64.4 97.73     Mostly Cloudy
05:00 Legend Double Dagger 6.8 4.3 84 30 6 64.4 97.76     LegendNANA
06:00 Legend Double Dagger 5.1 3.0 86 36 1 64.4 97.76     LegendNANA
07:00 Legend Double Dagger 5.8 4.5 91 25 3 64.4 97.78     Mainly Clear
08:00 Legend Double Dagger 8.6 4.8 77 25 4 64.4 97.77     LegendNANA
09:00 Legend Double Dagger 10.1 6.1 76 27 8 64.4 97.75     LegendNANA
10:00 Legend Double Dagger 11.9 6.6 70 28 9 64.4 97.66     Mainly Clear
11:00 Legend Double Dagger 12.6 5.6 62 26 5 64.4 97.56     LegendNANA
12:00 Legend Double Dagger 15.4 5.4 51 21 7 64.4 97.46     LegendNANA
13:00 Legend Double Dagger 14.7 5.0 52 24 9 64.4 97.40     Mostly Cloudy
14:00 Legend Double Dagger 17.6 5.6 45 25 5 64.4 97.31     LegendNANA
15:00 Legend Double Dagger 17.9 4.9 42 30 7 64.4 97.22     LegendNANA
16:00 Legend Double Dagger 17.0 6.0 48 27 4 64.4 97.19     Mostly Cloudy
17:00 Legend Double Dagger 15.6 3.5 44 24 13 64.4 97.34     LegendNANA
18:00 Legend Double Dagger 13.6 3.4 50 19 10 56.3 97.49     Rain Showers
19:00 Legend Double Dagger 11.6 4.4 61 29 16 64.4 97.47     Mostly Cloudy
20:00 Legend Double Dagger 12.4 4.4 58 20 9 64.4 97.64     LegendNANA
21:00 Legend Double Dagger 10.9 4.6 65 13 6 64.4 97.82     LegendNANA
22:00 Legend Double Dagger 11.7 -0.1 44 30 24 64.4 97.96     Mostly Cloudy
23:00 Legend Double Dagger 9.6 0.3 52 30 15 64.4 98.05     LegendNANA

Notes on Data Quality.

Legend

  • E = Estimated
  • M = Missing
  • NA = Not Available
  • ‡ = Partner data that is not subject to review by the National Climate Archives
Date modified: